Home > Weather > Cornwall > Past weeks

Flag for Canada Past Weather in Cornwall, Ontario, Canada — Yesterday and Last 2 Weeks

Now
74 °F

Mild.


Feels Like: 75 °F
Forecast: 64 / 87 °F
Wind: 10 mph from Southwest

Location: St Anicet

Current Time: Jul 27, 2016 at 9:33:56 AM

Latest Report: Jul 27, 2016 at 9:00 AM


Visibility: N/A

Pressure: 29.90 "Hg

Humidity: 76%

Dew Point: 66 °F

Location of CornwallLocation

Past Weather in Cornwall — Graph

°F

Cornwall Temperature Yesterday

Maximum temperature yesterday: 82 °F (at 5:00 PM)
Minimum temperature yesterday: 65 °F (at 11:00 PM)
Average temperature yesterday: 74 °F

High & Low Weather Summary for the Past Weeks

 TemperatureHumidityPressure
High91 °F (Jul 13, 5:00 PM)100% (Jul 25, 7:00 AM)30.21 "Hg (Jul 25, 7:00 AM)
Low53 °F (Jul 20, 6:00 AM)42% (Jul 12, 4:00 PM)29.63 "Hg (Jul 14, 5:00 PM)
Average72 °F75%29.90 "Hg
* Reported Jul 12 8:00 AM — Jul 27 8:00 AM, Cornwall, Weather by CustomWeather, © 2016

Note: Actual official high and low records may vary slightly from our data, if they occured in-between our weather recording intervals... More about our weather records

Advertising

Cornwall Weather History for the Previous 24 Hours

Scroll right to see more
 ConditionsComfort  
Time TempWeatherWind HumidityBarometerVisibility
8:00 AM
Wed, Jul 27
69 °FMild.8 mph86%29.90 "HgN/A
7:00 AM67 °FMild.7 mph86%29.89 "HgN/A
6:00 AM65 °FMild.5 mph91%29.88 "HgN/A
5:00 AM64 °FMild.5 mph94%29.88 "HgN/A
4:00 AM64 °FMild.3 mph86%29.88 "HgN/A
3:00 AM66 °FMild.5 mph88%29.88 "HgN/A
2:00 AM67 °FMild.5 mph87%29.88 "HgN/A
1:00 AM68 °FMild.5 mph86%29.88 "HgN/A
12:00 AM69 °FMild.3 mph88%29.88 "HgN/A
11:00 PM
Tue, Jul 26
65 °FMild.1 mph97%29.88 "HgN/A
10:00 PM67 °FMild.1 mph94%29.88 "HgN/A
9:00 PM70 °FMild.No wind89%29.86 "HgN/A
8:00 PM79 °FWarm.1 mph68%29.85 "HgN/A
7:00 PM81 °FWarm.5 mph56%29.85 "HgN/A
6:00 PM80 °FWarm.6 mph62%29.85 "HgN/A
5:00 PM82 °FWarm.7 mph55%29.85 "HgN/A
4:00 PM80 °FWarm.9 mph59%29.85 "HgN/A
3:00 PM80 °FWarm.9 mph60%29.85 "HgN/A
2:00 PM78 °FWarm.12 mph62%29.86 "HgN/A
1:00 PM77 °FWarm.10 mph65%29.86 "HgN/A
12:00 PM76 °FMild.9 mph71%29.85 "HgN/A
11:00 AM76 °FMild.8 mph75%29.84 "HgN/A
10:00 AM72 °FMild.9 mph80%29.84 "HgN/A
9:00 AM73 °FMild.9 mph80%29.82 "HgN/A
Weather by CustomWeather, © 2016

See weather overviewHow to use our weather pages